This is the latest recevied weather packets stored in our database for station/object W8XLR-2. If no packets are shown the sender has not sent any weather packets the latest 10 day(s).
| Time | Temp. | Humidity | Pressure | Rain* | Wind** | Luminosity | Snow |
|---|---|---|---|---|---|---|---|
| 1777496261 | 11.11° C | 96% | 1010 hPa | 0.76 mm | - | - | - |
| 1777496209 | 11.11° C | 96% | 1010 hPa | 0.76 mm | - | - | - |
| 1777495619 | 11.11° C | 96% | 1010 hPa | 0.76 mm | - | - | - |
| 1777495009 | 11.67° C | 96% | 1009.6 hPa | 1.02 mm | - | - | - |
| 1777494501 | 12.22° C | 97% | 1009.6 hPa | 1.02 mm | - | - | - |
| 1777494447 | 12.22° C | 97% | 1009.6 hPa | 1.02 mm | - | - | - |
| 1777494411 | 12.22° C | 97% | 1009.6 hPa | 1.02 mm | - | - | - |
| 1777493810 | 12.22° C | 97% | 1009.6 hPa | 1.02 mm | - | - | - |
| 1777493210 | 12.22° C | 97% | 1009.7 hPa | 1.52 mm | - | - | - |
| 1777492667 | 12.22° C | 96% | 1009.4 hPa | 2.54 mm | - | - | - |
| 1777492618 | 12.22° C | 96% | 1009.4 hPa | 2.54 mm | - | - | - |
| 1777492010 | 12.22° C | 96% | 1009.4 hPa | 2.54 mm | - | - | - |
| 1777491413 | 12.22° C | 96% | 1009.9 hPa | 3.05 mm | - | - | - |
| 1777490808 | 12.22° C | 96% | 1009.9 hPa | 3.3 mm | - | - | - |
| 1777490213 | 12.22° C | 96% | 1009.9 hPa | 3.3 mm | - | - | - |
| 1777489610 | 12.22° C | 96% | 1010 hPa | 2.79 mm | - | - | - |
| 1777489010 | 12.22° C | 96% | 1010.2 hPa | 1.52 mm | - | - | - |
| 1777488498 | 12.22° C | 96% | 1010.2 hPa | 1.52 mm | - | - | - |
| 1777488409 | 12.22° C | 96% | 1010.2 hPa | 1.52 mm | - | - | - |
| 1777487812 | 12.78° C | 96% | 1010.6 hPa | 0.51 mm | - | - | - |
| 1777487209 | 12.78° C | 96% | 1010.3 hPa | 1.02 mm | - | - | - |
| 1777486609 | 12.78° C | 96% | 1010.3 hPa | 1.02 mm | - | - | - |
| 1777486009 | 12.78° C | 96% | 1010.3 hPa | 3.81 mm | - | - | - |
| 1777485485 | 13.33° C | 96% | 1010.1 hPa | 4.57 mm | - | - | - |
| 1777485450 | 13.33° C | 96% | 1010.1 hPa | 4.57 mm | - | - | - |
* Rain latest hour (hover to see other rain measurements)
** Current wind speed in m/s (hover to see current wind gust speed)